Back to catalog

ARIANE 44L DEB

AliveHEO
NORAD 28041·DEBRIS·🇫🇷 France

Launched Oct 29, 1991 from Guiana Space Centre

Loading…

Next Passes (next 24 hours)

TLE

FreshSource: Space-Track

Epoch: Sep 14, 2026, 12:49 UTC

1 28041U 91075L   26257.53432788 -.00000259  00000-0 -39536-2 0  9995
2 28041   6.9275 261.8052 6603828 239.5577 254.2009  2.85130511253953

Track ARIANE 44L DEB in real time with AllMySat

Download on the App Store